Air Resources Laboratory banner image
Air Resources Laboratory web site National Oceanic and Atmospheric Administration (NOAA)

or roundup


Office: PQR

ASUS46 KPQR 151510
RWROR

OREGON REGIONAL WEATHER ROUNDUP
NATIONAL WEATHER SERVICE PORTLAND OR
700 AM PST FRI DEC 15 2017

NOTE: "FAIR" INDICATES FEW OR NO CLOUDS BELOW 12,000 FEET WITH
NO SIGNIFICANT WEATHER AND/OR OBSTRUCTIONS TO VISIBILITY.

ORZ001>013-151600-
NORTHWEST OREGON


CITY           SKY/WX    TMP DP  RH WIND       PRES   REMARKS
ASTORIA        CLOUDY    39  35  86 CALM      30.22S
NEWPORT        CLOUDY    41  34  75 CALM      30.27R
PORTLAND       CLOUDY    36  30  79 E8        30.26F WCI  30
VANCOUVER WA   CLOUDY    34  30  85 CALM      30.25F
SCAPPOOSE      CLOUDY    34  30  85 CALM      30.26S
HILLSBORO      CLOUDY    32  29  88 CALM      30.25F
AURORA         CLOUDY    32  29  88 CALM      30.26F
MCMINNVILLE    CLOUDY    32  30  92 S3        30.26F
SALEM          CLOUDY    32  28  85 CALM      30.25F
CORVALLIS      MOCLDY    29  28  96 CALM      30.27S
EUGENE         MOCLDY    26  26 100 S3        30.26F
$$

ORZ021-028-151600-
SOUTHWEST OREGON


CITY           SKY/WX    TMP DP  RH WIND       PRES   REMARKS
NORTH BEND     CLOUDY    38  36  92 CALM      30.28R
BROOKINGS      CLOUDY    45  42  89 CALM      30.23S
ROSEBURG       CLOUDY    33  33 100 CALM      30.27S FOG
GRANTS PASS    CLOUDY    30  30 100 CALM      30.32S FOG
MEDFORD        CLOUDY    29  29 100 CALM      30.28R FOG
$$

ORZ014>016-041-151600-
COLUMBIA GORGE


CITY           SKY/WX    TMP DP  RH WIND       PRES   REMARKS
TROUTDALE      CLOUDY    37  28  70 E13       30.24F WCI  29
HOOD RIVER     CLOUDY    32  27  80 CALM      30.27F
THE DALLES     CLOUDY    33  27  78 CALM      30.29F
$$

ORZ029>031-041-044-049-050-061>064-502-503-505>511-151600-
EASTERN OREGON


CITY           SKY/WX    TMP DP  RH WIND       PRES   REMARKS
MADRAS         CLOUDY   N/A N/A N/A CALM      30.20F
REDMOND        CLOUDY    20  18  92 CALM      30.17F
BEND           CLOUDY    27  21  80 SE5       30.18F WCI  21
PRINEVILLE     CLOUDY    28  27  93 SE6       30.19F WCI  22
KLAMATH FALLS  CLOUDY    22  19  89 NW5       30.26R WCI  16
LAKEVIEW       MOCLDY    18  16  92 NW5       30.25F WCI  11
HERMISTON      CLOUDY    30  28  92 CALM      30.26F
PENDLETON      CLOUDY    27  23  85 CALM      30.20F
JOHN DAY       CLOUDY    31  23  72 E6        30.20F WCI  25
MEACHAM        CLOUDY    25  20  81 CALM      30.13F
LA GRANDE      CLOUDY    26  22  84 S16G28    30.24S WCI  14
BAKER CITY     CLOUDY    24  18  77 S7        30.29F WCI  16
BURNS          FOG       20  16  84 SE3       30.26F VSB 3/4
ROME             N/A     16  12  84 CALM      30.26F
ONTARIO        CLOUDY    28  25  88 CALM      30.40F
$$




Office: LKN ASUS65 KLKN 151437 RTPLKN Regional Temperature And Precipitation Table...Early Morning National Weather Service Elko NV 637 AM PST Fri Dec 15 2017 ***Automated Airport Stations*** Values represent lows over the last 12 hours... Highs over the last 24 hours and precipitation over the last 24 hours...ending at 4 AM PST/5 AM PDT today. .BR LKN 1215 P DH04/TAIRZX/DH04/TAIRZP/PPDRZZ/SFDRZZ/SDIRZZ : :ID Station Elev / Max / Min / Pcpn / :.................................................................... : EKO : Elko ASOS 5074 : 43 / 11 / 0.00 / ELY : Ely ASOS 6262 : 46 / 11 / 0.00 / P68 : Eureka ASOS 5936 : 45 / 14 / 0.00 / TPH : Tonopah ASOS 5395 : 58 / 20 / 0.00 / ENV : Wendover AWOS 4236 : 37 / 13 / 0.00 / WMC : Winnemucca ASOS 4314 : 47 / 8 / 0.00 / .END ***Manual synoptic reporting stations in north and central Nevada*** Values reflect the previous 24 hours ending at 4 AM PST/5 AM PDT *Snow stations may only report during periods of snowfall* .BR LKN 1215 P DH04/TAIRZX/TAIRZN/PPDRZZ/SFDRZZ/SDIRZZ : Snow Snow :ID Station Elev Max / Min / Pcpn / Fall / Dpth :.................................................................... : TLKN2 : Elko NWS Office 5235 : 43 / 10 / 0.00 / 0.0 / T TELN2 : Ely Snow 6487 : M / M / M / M / M TWIN2 : Winnemucca Snow 4355 : M / M / M / M / M .END ***Cooperative stations in north and central Nevada*** Values reflect the previous 24 hours Report time as indicated .BR LKN 1215 P DH04/TAIRZX/TAIRZN/PPDRZZ/SFDRZZ/SDIRZZ : Snow Snow :ID Station Elev Time / Max / Min / Pcpn / Fall / Dpth :.................................................................... : MOMN2 : Moorman Ranch 6539 5 AM: 48 / 8 / 0.00 / 0.0 / 0 .END M = Missing data T = Trace amounts ASOS = Automated Surface Observing System AWOS = Automated Weather Observation System NWS = National Weather Service DCP = Data Collection Platform These data are preliminary and have not undergone final quality control (QC) by NCEI. Therefore, these data are subject to revision. Final and certified data can be accessed at the National Centers For Environmental Information (NCEI) - www.ncei.noaa.gov $$